Weather History for KABI - December, 2012

Change the Weather History Date:

Monday, December 24, 2012

  Actual Average Record
Temperature  
Mean Temperature 43 °F 44 °F  
Max Temperature 58 °F 56 °F 89 °F (1955)
Min Temperature 28 °F 33 °F 4 °F (1983)
Degree Days  
Heating Degree Days 22 21  
Month to date heating degree days 292 465  
Since 1 July heating degree days 634 898  
Cooling Degree Days 0 0  
Month to date cooling degree days 16 0  
Year to date cooling degree days 3049 2408  
Moisture  
Dew Point 23 °F    
Average Humidity 52    
Maximum Humidity 75    
Minimum Humidity 28    
Precipitation  
Precipitation 0.00 in 0.04 in 1.36 in (1895)
Month to date precipitation T 0.97  
Year to date precipitation 23.16 24.56  
Sea Level Pressure  
Sea Level Pressure 29.89 in    
Wind  
Wind Speed 4 mph (East)    
Max Wind Speed 28 mph    
Max Gust Speed 35 mph    
Visibility 10 miles    
Events      
T = Trace of Precipitation, MM = Missing Value Source: NWS Daily Summary

Daily Weather History Graph

Daily Weather History Graph

Search for Another Location

Airport or City:

Trip Planner

Search our weather history database for the weather conditions in past years. The results will help you decide how hot, cold, wet, or windy it might be!

Date:

Astronomy

Dec. 24, 2012 Rise Set
Actual Time 7:37 AM CST 5:39 PM CST
Civil Twilight 7:10 AM CST 6:06 PM CST
Nautical Twilight 6:40 AM CST 6:37 PM CST
Astronomical Twilight 6:10 AM CST 7:07 PM CST
Moon 3:04 PM CST (12/24) 4:22 AM CST (12/24)
Length of Visible Light 10h 55m
Length of Day
10h 01m
Waxing Gibbous, 88% of the Moon is Illuminated
Dec 24
Waxing Gibbous
Dec 28
Full
Jan 4
Last Quarter
Jan 11
New
Jan 18
First Quarter

Hourly Weather History & Observations

Time (CST) Temp. Windchill Dew Point Humidity Pressure Visibility Wind Dir Wind Speed Gust Speed Precip Events Conditions
12:52 AM 41.0 °F 39.0 °F 23.0 °F 49% 29.95 in 10.0 mi NW 3.5 mph - N/A   Clear
1:52 AM 39.9 °F 35.1 °F 24.1 °F 53% 29.94 in 10.0 mi North 6.9 mph - N/A   Clear
2:52 AM 37.9 °F - 23.0 °F 55% 29.96 in 10.0 mi Calm Calm - N/A   Clear
3:52 AM 36.0 °F - 23.0 °F 59% 29.96 in 10.0 mi Calm Calm - N/A   Clear
4:52 AM 30.9 °F 26.2 °F 21.9 °F 69% 29.97 in 10.0 mi Variable 4.6 mph - N/A   Clear
5:52 AM 30.9 °F - 23.0 °F 72% 29.99 in 10.0 mi Calm Calm - N/A   Clear
6:52 AM 30.0 °F 26.5 °F 21.9 °F 72% 30.00 in 10.0 mi North 3.5 mph - N/A   Clear
7:52 AM 28.0 °F 22.8 °F 21.0 °F 75% 30.03 in 10.0 mi North 4.6 mph - N/A   Clear
8:52 AM 32.0 °F - 24.1 °F 73% 30.03 in 10.0 mi Calm Calm - N/A   Clear
9:52 AM 37.0 °F - 24.1 °F 59% 30.02 in 10.0 mi Calm Calm - N/A   Clear
10:52 AM 42.1 °F 40.2 °F 25.0 °F 51% 30.00 in 10.0 mi Variable 3.5 mph - N/A   Clear
11:52 AM 46.9 °F - 23.0 °F 39% 29.96 in 10.0 mi SE 8.1 mph - N/A   Clear
12:52 PM 51.1 °F - 24.1 °F 35% 29.93 in 10.0 mi Calm Calm - N/A   Clear
1:52 PM 52.0 °F - 24.1 °F 34% 29.88 in 10.0 mi Calm Calm - N/A   Clear
2:52 PM 54.0 °F - 25.0 °F 33% 29.83 in 10.0 mi Calm Calm - N/A   Clear
3:52 PM 57.0 °F - 25.0 °F 29% 29.81 in 10.0 mi North 3.5 mph - N/A   Clear
4:52 PM 55.0 °F - 24.1 °F 30% 29.81 in 10.0 mi ESE 8.1 mph - N/A   Clear
5:52 PM 52.0 °F - 25.0 °F 35% 29.81 in 10.0 mi East 5.8 mph - N/A   Clear
6:52 PM 48.9 °F - 25.0 °F 39% 29.78 in 10.0 mi East 8.1 mph - N/A   Clear
7:52 PM 46.9 °F - 21.9 °F 37% 29.77 in 10.0 mi East 11.5 mph - N/A   Clear
8:52 PM 45.0 °F 43.5 °F 21.9 °F 40% 29.78 in 10.0 mi ENE 3.5 mph - N/A   Clear
9:52 PM 41.0 °F 37.1 °F 23.0 °F 49% 29.77 in 10.0 mi SE 5.8 mph - N/A   Clear
10:52 PM 45.0 °F 37.1 °F 21.9 °F 40% 29.70 in 10.0 mi ESE 19.6 mph - N/A   Overcast
11:52 PM 45.0 °F 41.8 °F 21.9 °F 40% 29.69 in 10.0 mi SE 5.8 mph - N/A   Clear